LAN8085 EGLL-SBGR

Flight info

Callsign LAN8085
Flight time N/A
Altitude 28000
Route GASGU N514 ADKIK DCT JOZMA DCT GAPLI/M080F280 DCT EVBAK DCT TAMEL DCT GONAN DCT 40N017W/M080F300 35N020W DCT RIPOD/N0478F290 DCT GOBEG/M082F300 DCT BAMUX/N0487F320 DCT TARIM DCT PINRU/N0498F330 UN741 NANIK/N0498F320 UN741 PUNOM/N0496F340 UN741 ERUGU UZ61 REDAD UZ21 VUNOX
Aircraft B77W/H-SDE1E2E3FGHIJ2J3J4J5M1RWXY/LB1D1

Departure

Time 2026-05-05 09:20
Airport London Heathrow Airport (EGLL)

Arrival

Time N/A
Airport São Paulo/Guarulhos–Governor André Franco Montoro International Airport (SBGR)
Time Latitude Longitude Altitude Speed Heading
2026-05-05 08:30 51.45971 -0.44960 98 ft 0 kts 133°
2026-05-05 09:02 51.45974 -0.44965 98 ft 2 kts 133°
2026-05-05 09:02 51.45984 -0.44983 98 ft 2 kts 133°
2026-05-05 09:02 51.45994 -0.45000 98 ft 2 kts 133°
2026-05-05 09:02 51.46004 -0.45019 98 ft 2 kts 120°
2026-05-05 09:03 51.46009 -0.45041 98 ft 2 kts 98°
2026-05-05 09:03 51.46009 -0.45065 98 ft 2 kts 80°
2026-05-05 09:03 51.46005 -0.45088 98 ft 2 kts 61°
2026-05-05 09:03 51.45996 -0.45107 98 ft 2 kts 43°
2026-05-05 09:04 51.45990 -0.45115 98 ft 0 kts 40°
2026-05-05 09:08 51.45994 -0.45110 98 ft 2 kts 41°
2026-05-05 09:08 51.46010 -0.45088 98 ft 4 kts 41°
2026-05-05 09:08 51.46039 -0.45049 98 ft 6 kts 41°
2026-05-05 09:08 51.46076 -0.44997 98 ft 6 kts 43°
2026-05-05 09:09 51.46104 -0.44946 98 ft 5 kts 52°
2026-05-05 09:09 51.46136 -0.44894 98 ft 7 kts 41°
2026-05-05 09:09 51.46179 -0.44835 98 ft 8 kts 41°
2026-05-05 09:09 51.46226 -0.44769 98 ft 9 kts 41°
2026-05-05 09:10 51.46274 -0.44715 98 ft 7 kts 12°
2026-05-05 09:10 51.46311 -0.44751 98 ft 6 kts 295°
2026-05-05 09:10 51.46316 -0.44833 98 ft 8 kts 271°
2026-05-05 09:10 51.46317 -0.44947 98 ft 11 kts 271°
2026-05-05 09:11 51.46318 -0.45077 98 ft 11 kts 271°
2026-05-05 09:11 51.46319 -0.45202 98 ft 11 kts 269°
2026-05-05 09:11 51.46317 -0.45325 98 ft 11 kts 269°
2026-05-05 09:11 51.46316 -0.45456 98 ft 12 kts 270°
2026-05-05 09:12 51.46318 -0.45597 98 ft 12 kts 275°
2026-05-05 09:12 51.46324 -0.45738 98 ft 12 kts 270°
2026-05-05 09:12 51.46324 -0.45878 98 ft 12 kts 270°
2026-05-05 09:12 51.46323 -0.46017 98 ft 13 kts 270°
2026-05-05 09:13 51.46322 -0.46172 98 ft 14 kts 270°
2026-05-05 09:13 51.46323 -0.46339 98 ft 14 kts 270°
2026-05-05 09:13 51.46322 -0.46500 98 ft 13 kts 270°
2026-05-05 09:13 51.46321 -0.46651 98 ft 13 kts 270°
2026-05-05 09:14 51.46321 -0.46793 98 ft 12 kts 270°
2026-05-05 09:14 51.46323 -0.46926 98 ft 11 kts 271°
2026-05-05 09:14 51.46324 -0.47045 98 ft 10 kts 270°
2026-05-05 09:14 51.46322 -0.47175 98 ft 12 kts 269°
2026-05-05 09:15 51.46325 -0.47330 98 ft 14 kts 280°
2026-05-05 09:15 51.46338 -0.47485 98 ft 13 kts 271°
2026-05-05 09:15 51.46330 -0.47634 98 ft 13 kts 252°
2026-05-05 09:15 51.46290 -0.47765 98 ft 13 kts 243°
2026-05-05 09:16 51.46254 -0.47894 98 ft 12 kts 263°
2026-05-05 09:16 51.46251 -0.48043 98 ft 14 kts 272°
2026-05-05 09:16 51.46253 -0.48206 98 ft 14 kts 270°
2026-05-05 09:16 51.46250 -0.48367 98 ft 14 kts 269°
2026-05-05 09:17 51.46248 -0.48520 98 ft 13 kts 272°
2026-05-05 09:17 51.46273 -0.48650 98 ft 11 kts 304°
2026-05-05 09:17 51.46329 -0.48727 98 ft 9 kts 333°
2026-05-05 09:17 51.46391 -0.48749 98 ft 8 kts 356°
2026-05-05 09:18 51.46451 -0.48734 98 ft 8 kts 27°
2026-05-05 09:18 51.46475 -0.48664 98 ft 6 kts 82°
2026-05-05 09:18 51.46476 -0.48627 98 ft 1 kts 88°
2026-05-05 09:18 51.46477 -0.48620 98 ft 0 kts 88°
2026-05-05 09:19 51.46477 -0.48588 98 ft 12 kts 88°
2026-05-05 09:19 51.46480 -0.48148 98 ft 69 kts 90°
2026-05-05 09:19 51.46485 -0.47062 98 ft 124 kts 89°
2026-05-05 09:19 51.46489 -0.45404 99 ft 172 kts 90°
2026-05-05 09:20 51.46467 -0.43335 306 ft 193 kts 92°
2026-05-05 09:20 51.46239 -0.41212 872 ft 200 kts 110°
2026-05-05 09:20 51.45496 -0.39256 1325 ft 212 kts 127°
2026-05-05 09:20 51.44483 -0.37474 1714 ft 219 kts 131°
2026-05-05 09:21 51.43373 -0.35813 2184 ft 224 kts 142°
2026-05-05 09:21 51.41919 -0.34703 2454 ft 237 kts 168°
2026-05-05 09:21 51.40298 -0.34530 2985 ft 240 kts 180°
2026-05-05 09:21 51.38621 -0.34686 3485 ft 241 kts 185°
2026-05-05 09:22 51.36940 -0.35036 3875 ft 249 kts 189°
2026-05-05 09:22 51.35247 -0.35772 4274 ft 257 kts 201°
2026-05-05 09:22 51.33582 -0.37064 4403 ft 276 kts 212°
2026-05-05 09:22 51.32070 -0.38986 4849 ft 279 kts 235°
2026-05-05 09:23 51.31026 -0.41601 5355 ft 283 kts 242°
2026-05-05 09:23 51.30129 -0.44433 5777 ft 290 kts 252°
2026-05-05 09:23 51.29509 -0.47543 5962 ft 297 kts 255°
2026-05-05 09:23 51.28925 -0.50761 6172 ft 307 kts 255°
2026-05-05 09:24 51.28337 -0.54017 6921 ft 305 kts 255°
2026-05-05 09:24 51.27749 -0.57265 7544 ft 307 kts 255°
2026-05-05 09:24 51.27151 -0.60566 8053 ft 313 kts 256°
2026-05-05 09:24 51.26540 -0.63931 8583 ft 318 kts 255°
2026-05-05 09:25 51.25924 -0.67319 9183 ft 320 kts 255°
2026-05-05 09:25 51.25305 -0.70716 9736 ft 324 kts 255°
2026-05-05 09:25 51.24674 -0.74169 10305 ft 327 kts 255°
2026-05-05 09:25 51.24037 -0.77657 10834 ft 331 kts 255°
2026-05-05 09:26 51.23381 -0.81242 11095 ft 344 kts 254°
2026-05-05 09:26 51.22692 -0.84997 11315 ft 359 kts 254°
2026-05-05 09:26 51.21974 -0.88902 11584 ft 373 kts 254°
2026-05-05 09:26 51.21220 -0.92909 12047 ft 380 kts 251°
2026-05-05 09:27 51.20136 -0.96773 12615 ft 385 kts 244°
2026-05-05 09:27 51.19141 -1.00739 13151 ft 388 kts 254°
2026-05-05 09:27 51.18390 -1.04877 13749 ft 391 kts 255°
2026-05-05 09:27 51.17647 -1.09044 14323 ft 394 kts 255°
2026-05-05 09:28 51.16896 -1.13253 14870 ft 398 kts 255°
2026-05-05 09:28 51.16138 -1.17486 15481 ft 400 kts 255°
2026-05-05 09:28 51.15373 -1.21752 16043 ft 403 kts 254°
2026-05-05 09:28 51.14599 -1.26053 16552 ft 407 kts 254°
2026-05-05 09:29 51.13817 -1.30394 17062 ft 411 kts 254°
2026-05-05 09:29 51.13026 -1.34770 17599 ft 413 kts 253°
2026-05-05 09:29 51.12229 -1.39167 18191 ft 414 kts 253°
2026-05-05 09:29 51.11431 -1.43562 18751 ft 416 kts 253°
2026-05-05 09:30 51.10620 -1.48021 19259 ft 419 kts 253°
2026-05-05 09:30 51.09804 -1.52493 19709 ft 423 kts 253°
2026-05-05 09:30 51.08981 -1.56988 20210 ft 426 kts 253°
2026-05-05 09:30 51.08147 -1.61541 20706 ft 429 kts 253°
2026-05-05 09:31 51.07309 -1.66096 21207 ft 431 kts 252°
2026-05-05 09:31 51.06466 -1.70675 21664 ft 434 kts 252°
2026-05-05 09:31 51.05613 -1.75290 22115 ft 436 kts 252°
2026-05-05 09:31 51.04756 -1.79916 22559 ft 439 kts 252°
2026-05-05 09:32 51.03890 -1.84585 23011 ft 441 kts 252°
2026-05-05 09:32 51.03021 -1.89255 23480 ft 443 kts 252°
2026-05-05 09:32 51.02144 -1.93954 23908 ft 445 kts 252°
2026-05-05 09:32 51.01260 -1.98679 24292 ft 449 kts 252°
2026-05-05 09:33 51.00370 -2.03426 24717 ft 450 kts 252°
2026-05-05 09:33 50.99476 -2.08184 25153 ft 452 kts 252°
2026-05-05 09:33 50.98569 -2.12995 25552 ft 454 kts 252°
2026-05-05 09:33 50.97660 -2.17805 25930 ft 457 kts 251°
2026-05-05 09:34 50.96744 -2.22643 26296 ft 459 kts 252°
2026-05-05 09:34 50.95818 -2.27518 26695 ft 461 kts 251°
2026-05-05 09:34 50.94822 -2.32369 27098 ft 462 kts 250°
2026-05-05 09:34 50.93798 -2.37207 27441 ft 465 kts 250°
2026-05-05 09:35 50.92765 -2.42062 27746 ft 468 kts 250°
2026-05-05 09:35 50.90682 -2.51826 28485 ft 471 kts 249°
2026-05-05 09:35 50.89630 -2.56739 28853 ft 472 kts 249°
2026-05-05 09:36 50.88571 -2.61678 29238 ft 473 kts 249°
2026-05-05 09:36 50.87511 -2.66605 29646 ft 473 kts 249°
2026-05-05 09:36 50.86446 -2.71541 29999 ft 474 kts 249°
2026-05-05 09:36 50.85380 -2.76474 29993 ft 474 kts 249°
2026-05-05 09:37 50.83254 -2.86275 29998 ft 470 kts 249°
2026-05-05 09:37 50.81123 -2.96052 29996 ft 471 kts 249°
2026-05-05 09:38 50.78985 -3.05818 29995 ft 470 kts 249°
2026-05-05 09:38 50.76832 -3.15603 29986 ft 473 kts 249°
2026-05-05 09:39 50.74669 -3.25387 29995 ft 473 kts 249°
2026-05-05 09:39 50.72491 -3.35193 29999 ft 473 kts 249°
2026-05-05 09:40 50.70311 -3.44963 30003 ft 475 kts 249°
2026-05-05 09:40 50.68115 -3.54758 30007 ft 475 kts 249°
2026-05-05 09:41 50.65906 -3.64565 30006 ft 476 kts 249°
2026-05-05 09:41 50.63685 -3.74380 30002 ft 476 kts 248°
2026-05-05 09:42 50.61461 -3.84162 29999 ft 476 kts 248°
2026-05-05 09:42 50.59229 -3.93934 29995 ft 477 kts 248°
2026-05-05 09:43 50.56980 -4.03736 29991 ft 478 kts 248°
2026-05-05 09:43 50.54719 -4.13547 29994 ft 479 kts 248°
2026-05-05 09:44 50.52445 -4.23369 29995 ft 480 kts 249°
2026-05-05 09:44 50.50152 -4.33223 29998 ft 482 kts 248°
2026-05-05 09:45 50.47845 -4.43099 30006 ft 483 kts 249°
2026-05-05 09:45 50.45525 -4.52978 30007 ft 484 kts 249°
2026-05-05 09:46 50.43197 -4.62853 30010 ft 485 kts 249°
2026-05-05 09:46 50.40855 -4.72738 30013 ft 485 kts 248°
2026-05-05 09:47 50.38503 -4.82620 30016 ft 487 kts 248°
2026-05-05 09:47 50.36135 -4.92526 30018 ft 487 kts 248°
2026-05-05 09:48 50.33757 -5.02429 30008 ft 488 kts 248°
2026-05-05 09:48 50.31365 -5.12341 30016 ft 488 kts 248°
2026-05-05 09:49 50.28974 -5.22211 30011 ft 487 kts 248°
2026-05-05 09:49 50.26563 -5.32118 30008 ft 488 kts 248°
2026-05-05 09:50 50.24144 -5.42010 30020 ft 488 kts 248°
2026-05-05 09:50 50.21581 -5.51778 30020 ft 490 kts 246°
2026-05-05 09:51 50.18903 -5.61713 30023 ft 503 kts 246°
2026-05-05 09:51 50.16150 -5.71880 30015 ft 511 kts 245°
2026-05-05 09:52 50.13368 -5.82114 30496 ft 512 kts 245°
2026-05-05 09:52 50.11971 -5.87237 30602 ft 514 kts 246°
2026-05-05 09:52 50.10575 -5.92343 30382 ft 510 kts 246°
2026-05-05 09:53 50.07827 -6.02366 30386 ft 504 kts 245°
2026-05-05 09:53 50.05051 -6.12446 30391 ft 511 kts 246°
2026-05-05 09:54 50.02248 -6.22581 30391 ft 509 kts 246°
2026-05-05 09:54 49.99435 -6.32706 30385 ft 512 kts 246°
2026-05-05 09:55 49.96619 -6.42798 30311 ft 510 kts 246°
2026-05-05 09:55 49.93782 -6.52924 30253 ft 514 kts 246°
2026-05-05 09:56 49.90930 -6.63063 30202 ft 514 kts 246°
2026-05-05 09:56 49.88063 -6.73209 30125 ft 516 kts 246°
2026-05-05 09:57 49.85181 -6.83363 30068 ft 515 kts 246°
2026-05-05 09:57 49.82287 -6.93519 30047 ft 517 kts 246°
2026-05-05 09:58 49.79376 -7.03689 30047 ft 518 kts 246°
2026-05-05 09:58 49.76457 -7.13846 30047 ft 518 kts 246°
2026-05-05 09:59 49.73515 -7.24042 30054 ft 520 kts 246°
2026-05-05 09:59 49.70596 -7.34111 30051 ft 520 kts 246°
2026-05-05 10:00 49.67644 -7.44255 30051 ft 519 kts 247°
2026-05-05 10:00 49.64675 -7.54413 30057 ft 523 kts 247°
2026-05-05 10:01 49.61685 -7.64602 30054 ft 522 kts 247°
2026-05-05 10:01 49.58674 -7.74819 30059 ft 523 kts 246°
2026-05-05 10:02 49.55666 -7.84980 30057 ft 524 kts 246°
2026-05-05 10:02 49.52629 -7.95200 30055 ft 523 kts 247°
2026-05-05 10:03 49.49598 -8.05357 30067 ft 525 kts 247°
2026-05-05 10:03 49.46551 -8.15524 30060 ft 524 kts 247°
2026-05-05 10:04 49.43501 -8.25662 30066 ft 525 kts 247°
2026-05-05 10:04 49.40436 -8.35806 30072 ft 524 kts 247°
2026-05-05 10:05 49.37363 -8.45934 30080 ft 525 kts 247°
2026-05-05 10:05 49.34260 -8.56120 30074 ft 526 kts 247°
2026-05-05 10:06 49.31163 -8.66244 30071 ft 524 kts 246°
2026-05-05 10:06 49.28059 -8.76350 30074 ft 527 kts 246°
2026-05-05 10:07 49.24944 -8.86453 30076 ft 525 kts 247°
2026-05-05 10:07 49.21822 -8.96535 30081 ft 527 kts 247°
2026-05-05 10:08 49.18683 -9.06634 30083 ft 526 kts 247°
2026-05-05 10:08 49.15548 -9.16677 30085 ft 525 kts 247°
2026-05-05 10:09 49.12399 -9.26725 30087 ft 525 kts 247°
2026-05-05 10:09 49.09285 -9.36624 30092 ft 525 kts 247°
2026-05-05 10:10 49.06135 -9.46597 30099 ft 524 kts 247°
2026-05-05 10:10 49.02964 -9.56596 30100 ft 523 kts 247°
2026-05-05 10:11 48.99799 -9.66539 30100 ft 521 kts 246°
2026-05-05 10:11 48.96607 -9.76406 30092 ft 522 kts 243°
2026-05-05 10:12 48.92188 -9.85191 30102 ft 528 kts 225°
2026-05-05 10:12 48.86457 -9.92224 30090 ft 531 kts 218°
2026-05-05 10:13 48.80603 -9.98987 30093 ft 531 kts 218°
2026-05-05 10:13 48.74716 -10.05765 30089 ft 530 kts 219°
2026-05-05 10:14 48.68817 -10.12536 30095 ft 530 kts 219°
2026-05-05 10:14 48.62950 -10.19250 30098 ft 529 kts 219°
2026-05-05 10:15 48.57046 -10.25987 30100 ft 532 kts 219°
2026-05-05 10:15 48.51156 -10.32688 30104 ft 530 kts 219°
2026-05-05 10:16 48.45264 -10.39371 30108 ft 531 kts 219°
2026-05-05 10:16 48.39380 -10.46025 30106 ft 529 kts 219°
2026-05-05 10:17 48.33480 -10.52677 30106 ft 530 kts 219°
2026-05-05 10:17 48.27564 -10.59328 30113 ft 529 kts 219°
2026-05-05 10:18 48.21675 -10.65929 30112 ft 530 kts 218°
2026-05-05 10:18 48.15770 -10.72529 30113 ft 531 kts 218°
2026-05-05 10:19 48.09897 -10.79073 30119 ft 528 kts 218°
2026-05-05 10:19 48.04063 -10.85556 30121 ft 529 kts 218°
2026-05-05 10:20 47.98165 -10.92090 30120 ft 529 kts 218°
2026-05-05 10:20 47.92267 -10.98606 30122 ft 528 kts 218°
2026-05-05 10:21 47.86383 -11.05088 30109 ft 528 kts 218°
2026-05-05 10:21 47.80475 -11.11577 30110 ft 529 kts 219°
2026-05-05 10:22 47.74557 -11.18059 30111 ft 527 kts 219°
2026-05-05 10:22 47.68630 -11.24532 30110 ft 529 kts 219°
2026-05-05 10:23 47.62697 -11.30992 30117 ft 528 kts 219°
2026-05-05 10:23 47.56778 -11.37419 30112 ft 528 kts 219°
2026-05-05 10:24 47.50863 -11.43823 30116 ft 526 kts 219°
2026-05-05 10:24 47.44958 -11.50199 30119 ft 527 kts 219°
2026-05-05 10:25 47.39040 -11.56571 30127 ft 526 kts 219°
2026-05-05 10:25 47.33107 -11.62940 30125 ft 526 kts 219°
2026-05-05 10:26 47.27204 -11.69259 30136 ft 524 kts 218°
2026-05-05 10:26 47.21298 -11.75564 30132 ft 525 kts 218°
2026-05-05 10:27 47.15362 -11.81884 30133 ft 525 kts 218°
2026-05-05 10:27 47.09450 -11.88160 30128 ft 525 kts 218°
2026-05-05 10:28 47.03506 -11.94453 30141 ft 525 kts 218°
2026-05-05 10:28 46.97575 -12.00714 30139 ft 524 kts 218°
2026-05-05 10:29 46.91628 -12.06975 30141 ft 524 kts 218°
2026-05-05 10:29 46.85694 -12.13205 30138 ft 524 kts 218°
2026-05-05 10:30 46.79762 -12.19414 30136 ft 523 kts 218°